Hourly Data Report for September 22, 2020

BRIER ISLAND
NOVA SCOTIA
Current Station Operator: ECCC - MSC

44°17'09.000" N
66°20'48.000" W
15.80 m
8200604
71988
WVU

Download Data

Hourly Data (September 2020)
Hourly Data Report for September 22, 2020
TIME Temp Definition
°C
Dew Point Definition
°C
Rel Hum Definition
%
Wind Dir Definition
10's deg

Wind Spd Definition
km/h
Visibility Definition
km
Stn Press Definition
kPa
Hmdx Definition


Wind Chill Definition


Weather Definition


00:00 10.6 8.3 86 2 18   102.50     LegendNANA
01:00 10.6 8.7 88 2 20   102.41     LegendNANA
02:00 9.9 6.3 78 4 14   102.38     LegendNANA
03:00 10.8 8.5 86 1 25   102.18     LegendNANA
04:00 10.8 9.3 90 1 24   102.05     LegendNANA
05:00 10.2 6.5 78 4 26   102.00     LegendNANA
06:00 10.3 6.9 80 3 30   101.85     LegendNANA
07:00 10.5 7.6 82 2 33   101.72     LegendNANA
08:00 11.1 7.9 81 2 40   101.58     LegendNANA
09:00 11.4 7.0 74 2 47   101.48     LegendNANA
10:00 11.4 7.6 78 2 55   101.30     LegendNANA
11:00 11.5 8.0 79 2 54   101.07     LegendNANA
12:00 11.4 7.8 79 1 56   100.87     LegendNANA
13:00 11.2 7.6 79 2 57   100.71     LegendNANA
14:00 9.2 5.9 80 1 69   100.48     LegendNANA
15:00 9.5 8.1 91 36 62   100.29     LegendNANA
16:00 9.4 8.9 97 36 62   100.06     LegendNANA
17:00 9.7 9.3 98 35 67   99.93     LegendNANA
18:00 9.6 9.6 100 35 65   99.81     LegendNANA
19:00 10.2 10.0 99 35 69   99.69     LegendNANA
20:00 10.1 9.8 98 35 65   99.57     LegendNANA
21:00 10.6 9.8 95 35 65   99.44     LegendNANA
22:00 10.8 9.9 94 35 67   99.31     LegendNANA
23:00 10.9 10.2 95 34 64   99.18     LegendNANA

Notes on Data Quality.

Legend

  • E = Estimated
  • M = Missing
  • NA = Not Available*
  • [empty] = Indicates an unobserved value
Date modified: